Regional Weather Roundup
Issued by NWS Upton, NY

Current Version | Previous Version | Graphics & Text | Print | Product List | Glossary Off
Versions: 1 2 3 4 5 6 7 8 9 10 11 12 13 14 15 16 17 18 19 20 21 22 23 24 25 26 27 28 29 30 31 32 33 34 35 36 37 38 39 40 41 42 43 44 45 46 47 48 49 50

000
ASUS41 KOKX 281108
RWROKX

REGIONAL WEATHER ROUNDUP
NATIONAL WEATHER SERVICE NEW YORK NY
700 AM EDT THU MAY 28 2015

NOTE: "FAIR" INDICATES FEW OR NO CLOUDS BELOW 12,000 FEET WITH NO
SIGNIFICANT WEATHER AND/OR OBSTRUCTIONS TO VISIBILITY.

NYZ071-072-176-178-NJZ106-104-281200-
NEW YORK CITY METRO AREA


CITY           SKY/WX    TMP DP  RH WIND       PRES   REMARKS
CENTRAL PARK   CLOUDY    72  66  81 W3        30.18R
LAGUARDIA APRT CLOUDY    67  61  81 S6        30.15R
KENNEDY INTL   CLOUDY    62  59  90 S3        30.17R
NEWARK/LIBERTY CLOUDY    71  67  87 SW8       30.15R
BRNX BOT. GARD   N/A     66  63  88 S2        30.15F
TETERBORO      CLOUDY    71  66  84 S3        30.15R
$$

NYZ177-179-078>081-281200-
LONG ISLAND NEW YORK

CITY           SKY/WX    TMP DP  RH WIND       PRES   REMARKS
FARMINGDALE    CLOUDY    64  60  87 SW10      30.18S
ISLIP          PTSUNNY   64  60  87 SW10      30.17R
SHIRLEY        PTSUNNY   65  61  87 SW12      30.19R
WESTHAMPTON    CLOUDY    63  60  90 SW9G17    30.20R
MONTAUK POINT    N/A     62  58  86 S8        30.20R
$$

NYZ052-065-067-281200-
HUDSON VALLEY

CITY           SKY/WX    TMP DP  RH WIND       PRES   REMARKS
WHITE PLAINS   CLOUDY    64  63  96 SE3       30.16R FOG
NEWBURGH       PTSUNNY   68  68 100 CALM      30.16R
MONTGOMERY     SUNNY     68  67  96 CALM      30.14S FOG
POUGHKEEPSIE   CLOUDY    69  67  93 CALM      30.13S
ALBANY         PTSUNNY   69  64  84 S12       30.10R
$$

NJZ001-105-106-008-010-013-015-019>022-104-281200-
NEW JERSEY

CITY           SKY/WX    TMP DP  RH WIND       PRES   REMARKS
NEWARK/LIBERTY CLOUDY    71  67  87 SW8       30.15R
TETERBORO      CLOUDY    71  66  84 S3        30.15R
CALDWELL       CLOUDY    70  67  90 SW5       30.16R FOG
MORRISTOWN     CLOUDY    75  73  94 W7        30.16R FOG
SOMERVILLE     CLOUDY    69  68  96 CALM      30.14S FOG
SUSSEX         CLOUDY    69  66  90 CALM      30.16S FOG
ANDOVER          N/A     69  68  96 SW6       30.15S
TRENTON        CLOUDY    69  67  93 SW5       30.15R FOG
MILLVILLE      PTSUNNY   70  68  93 VRB3      30.17R
ATLANTIC CITY  PTSUNNY   67  63  87 S5        30.18R
WRIGHTSTOWN    PTSUNNY   67  67  99 S5        30.15R
TOMS RIVER     PTSUNNY  N/A N/A N/A S3        30.17S
BELMAR         PTSUNNY   66  59  77 S5        30.17R
$$

PAZ047>061-062-071-281200-
EASTERN PENNSYLVANIA

CITY           SKY/WX    TMP DP  RH WIND       PRES   REMARKS
PHILADELPHIA   CLOUDY    71  67  87 S3        30.17R
ALLENTOWN      CLOUDY    67  66  97 CALM      30.15R FOG
SCRANTON       PTSUNNY   66  63  90 SE3       30.15S FOG
$$

CTZ002-004>006-009-010-012-RIZ004-006-007-MAZ004-011-015-281200-
SOUTHERN NEW ENGLAND
 IN CT

CITY           SKY/WX    TMP DP  RH WIND       PRES   REMARKS
BRADLEY INTL   CLOUDY    67  63  87 S8        30.14R
HARTFORD       CLOUDY    66  62  87 S12       30.16R
DANBURY        CLOUDY    69  65  86 VRB3      30.17R FOG
WTRBRY/OXFORD  NOT AVBL
BRIDGEPORT     CLOUDY    64  61  90 SW6       30.16R
MERIDEN        CLOUDY    65  61  87 S5        30.17R FOG
NEW HAVEN      CLOUDY    64  61  90 VRB3      30.17R
CHESTER        CLOUDY    63  61  94 SW7       30.18S
GROTON         CLOUDY    59  56  89 S6        30.18R
WILLIMANTIC    CLOUDY    65  62  90 S6        30.17R FOG

 IN RI

CITY           SKY/WX    TMP DP  RH WIND       PRES   REMARKS
PROVIDENCE     CLOUDY    65  60  84 S12       30.18R
BLOCK ISLAND   PTSUNNY   61  55  82 SW15      30.20S
WESTERLY       CLOUDY    60  57  89 S8        30.20R

 IN MA

CITY           SKY/WX    TMP DP  RH WIND       PRES   REMARKS
BOSTON         PTSUNNY   67  62  84 SW10      30.14R
WORCESTER      CLOUDY    66  62  87 SW10      30.16R
WESTFIELD      CLOUDY    66  64  93 S5        30.13S FOG
PROVINCETOWN   CLOUDY    61  55  82 SW16G23   30.17R
NANTUCKET      CLOUDY    62  58  86 S14       30.22S
$$

ANZ330-335-338-340-345-350-353-355-281200-
COASTAL MARINE OBSERVATIONS


STATION/POSITION TIME  SKY/WX   TEMP    WIND        PRES    VSBY  WAVE
                                AIR SEA DIR/SP/G                  HT/PER
                 (UTC)          (F)     (DEG/KT/KT) (MB)    (MI)  (FT/S)
NY HARB ENTRANCE 1050            56 49  190/ 10/ 10 1021.2          3/ 6
4S FIRE IS       1003               56                N/A           4/ 6
20S FIRE ISLAND  1050            60 57  200/  8/ 10 1022.1          3/ 6
GREAT SOUTH BAY  1000            63 67  240/ 14/ 16   N/A
23SW MTP         1050            59 54  210/ 14/ 16 1022.1          4/ 6
HUDSON CANYON    NOT AVBL
KINGS POINT      1000            63 56  170/  5/  7 1020.3
CENTRAL LI SOUND 1000            60 56  240/  4/  6   N/A
EASTERN LI SOUND 1000            57     190/  6/  6   N/A
ROBBINS REEF     1000            65     180/  8/  9 1019.7
$$


>>>>>>>>>>>>>>>>>>>>>>>>>>>> KEY <<<<<<<<<<<<<<<<<<<<<<<<<<<
>                                                          <
>     SKY/WX - SKY CONDITION/PRESENT WEATHER               <
>     TMP    - TEMPERATURE IN FAHRENHEIT                   <
>     DP     - DEWPOINT IN FAHRENHEIT                      <
>     RH     - RELATIVE HUMIDITY IN PERCENT                <
>     WIND   - DIRECTION AND SPEED IN MPH                  <
>     PRES   - MEAN SEA LEVEL PRESSURE IN INCHES OF HG     <
>     WCI    - WIND CHILL INDEX                            <
>     VSB    - VISIBILITY IN MILES                         <
>     HX     - HEAT INDEX                                  <
>     TC     - TEMPERATURE IN CELSIUS                      <
>     VRB    - VARIABLE WIND DIRECTION                     <
>                                                          <
>>>>>>>>>>>>>>>>>>>>>>>>>>>> KEY <<<<<<<<<<<<<<<<<<<<<<<<<<<




USA.gov is the U.S. government's official web portal to all federal, state and local government web resources and services.